GFSGL_sfc_temp_021.txt.gz
Temp
65 65 63 64 64 64 62 63 62 61 62 63 63 62 62 63 62 62 64 62 61 60 61 61 60 60 59 60 60 61 60 61 59 59 61 62 63 62 64 64 65 62 61
66 66 64 65 64 63 62 62 62 62 62 63 64 63 63 62 62 63 64 63 61 60 59 60 60 60 59 59 60 59 59 60 60 58 60 61 61 63 63 62 65 67 61
66 65 64 64 63 63 62 63 63 63 63 64 62 63 64 64 63 62 62 62 62 60 60 60 60 61 59 59 59 59 59 62 60 59 58 60 60 61 60 60 59 59 64
66 64 63 62 64 63 62 64 64 63 63 64 64 65 65 65 64 65 63 61 62 61 61 61 62 61 60 60 60 59 60 59 60 60 58 57 57 58 58 57 57 58 59
66 64 63 63 65 65 65 65 65 63 65 65 64 65 64 65 65 63 63 62 61 60 60 62 62 62 60 60 62 60 60 62 60 57 55 56 55 55 55 56 56 57 57
64 64 65 65 66 65 66 65 67 65 64 64 62 62 60 64 52 55 60 62 62 61 60 61 61 60 59 57 55 57 60 61 56 56 55 54 55 56 56 56 55 54 54
66 67 66 66 66 65 67 66 64 62 61 60 60 59 57 55 52 53 56 63 62 61 60 61 63 64 60 61 54 54 54 57 59 59 57 56 56 58 57 56 55 55 55
66 68 68 67 65 66 65 64 62 61 60 59 58 57 57 55 50 51 54 62 61 60 60 61 63 60 59 60 60 61 61 60 59 63 60 56 57 57 59 59 58 57 57
68 68 69 68 64 64 63 61 62 61 60 59 59 58 57 56 51 53 60 61 61 60 63 62 62 60 53 53 62 60 58 56 51 49 49 47 47 50 55 58 55 53 51
69 71 71 68 66 63 61 61 61 61 61 62 60 59 56 57 50 50 58 61 58 58 57 57 55 57 49 53 60 58 57 56 56 56 54 51 52 53 52 55 53 51 48
72 72 71 67 66 63 61 61 61 61 62 60 60 58 59 57 53 48 52 59 60 58 58 57 55 47 48 49 53 57 55 55 55 57 56 56 55 54 53 53 53 52 49
72 72 71 66 71 66 62 60 61 60 59 59 58 57 58 56 51 46 48 51 51 58 57 56 52 44 45 46 49 46 50 53 56 56 54 53 52 51 53 52 51 52 53
70 68 68 68 68 64 64 60 60 59 59 58 58 57 56 56 52 46 46 49 48 57 58 55 45 44 45 45 45 51 51 53 53 52 51 48 48 49 49 50 51 55 56
68 66 68 68 64 66 66 65 63 58 57 59 59 57 56 55 52 48 50 50 49 50 49 48 46 47 49 48 48 49 53 53 53 52 48 48 49 48 48 50 52 51 50
68 68 69 68 66 64 65 65 64 61 60 59 58 60 57 57 57 52 52 53 53 53 51 50 49 49 49 50 51 51 52 52 53 49 49 47 48 50 51 51 48 46 43
69 69 69 68 64 66 64 60 46 49 51 52 52 58 62 58 48 48 48 49 48 47 54 52 51 51 53 54 53 51 52 51 49 49 47 48 48 46 45 44 45 44 42
71 70 69 68 67 66 65 63 59 52 45 45 49 52 53 54 47 47 48 47 46 47 55 54 54 57 55 56 53 52 48 47 48 51 48 49 45 45 46 46 46 45 43
68 58 71 70 70 67 67 65 65 60 56 55 48 48 48 47 46 46 45 46 49 50 54 55 56 57 58 54 51 49 48 47 46 46 44 45 45 47 46 45 44 42 40
73 70 73 72 71 68 68 68 64 65 62 62 52 47 40 40 41 42 45 63 60 57 55 55 55 55 54 53 50 49 48 50 46 45 45 46 48 47 45 43 41 39 40
76 64 66 72 68 70 69 68 68 63 64 64 59 56 46 47 48 49 52 56 56 58 54 54 51 52 51 50 50 49 45 45 46 46 46 46 47 45 44 44 43 42 40
76 71 60 70 71 69 70 69 69 69 65 66 63 57 44 57 56 57 58 56 58 57 58 55 53 51 51 50 49 48 49 49 50 49 48 49 47 45 44 44 43 43 42
76 75 70 73 71 72 69 70 68 69 69 66 66 58 42 64 62 61 61 62 58 57 58 55 53 53 53 52 52 51 51 51 51 50 49 47 47 46 45 46 45 42 41
77 74 72 73 73 61 61 70 68 68 69 69 68 59 55 64 62 62 62 61 59 57 56 54 53 52 53 52 53 54 52 51 52 51 49 48 48 47 46 41 44 41 40
71 70 71 73 73 68 71 68 64 55 68 68 66 61 59 61 64 62 62 61 58 57 57 56 54 51 50 52 52 52 53 52 52 51 50 49 48 46 46 44 42 43 35
70 68 67 70 71 69 68 63 66 60 60 59 58 60 60 60 57 58 57 57 56 55 52 52 52 50 50 50 47 45 38 39 46 42 49 50 49 46 43 40 41 35 34
69 69 67 65 67 66 63 61 59 59 59 58 57 58 58 56 55 55 55 53 51 51 51 50 49 47 47 46 44 37 36 36 38 37 47 48 45 42 42 41 42 35 35

GFSGL_sfc_temp_024.txt.gz
Temp
61 61 61 61 62 61 61 61 60 60 61 61 61 61 61 61 61 61 60 61 61 59 59 60 59 58 58 59 59 61 60 60 58 60 62 63 63 64 64 63 64 63 61
62 61 61 61 61 60 61 60 60 60 61 61 61 61 61 60 61 62 61 61 60 59 59 60 59 59 58 59 60 60 60 60 60 59 61 61 61 61 63 63 64 66 61
63 61 61 60 61 60 60 60 62 62 61 62 62 61 62 61 62 62 61 60 60 60 60 60 59 58 58 59 59 59 60 61 60 60 59 61 61 61 61 59 59 59 62
63 61 60 60 61 61 61 60 61 62 62 62 63 64 63 62 63 63 62 61 60 60 61 61 61 61 59 60 60 59 59 59 59 58 58 57 58 57 58 57 56 55 56
63 61 60 61 62 62 62 61 62 61 62 63 63 63 63 63 63 62 62 61 60 60 60 61 61 61 59 60 60 59 59 58 58 56 55 55 54 54 55 54 54 54 55
62 61 62 62 63 62 62 62 62 60 61 62 63 63 62 62 52 54 59 61 61 61 60 60 60 59 58 55 55 56 58 59 57 55 53 53 53 54 53 54 53 53 54
63 63 63 63 63 63 63 63 60 58 57 57 57 58 59 59 49 51 54 62 61 61 61 61 61 62 59 60 54 54 52 55 58 58 55 54 54 56 55 54 54 53 53
64 65 64 64 63 63 61 60 58 56 56 55 55 55 56 57 48 49 53 61 61 61 61 61 62 60 59 60 58 58 57 58 59 62 58 56 58 57 57 57 55 54 54
65 65 65 64 62 62 61 58 58 56 55 56 56 56 54 52 47 47 56 60 59 59 62 62 61 59 52 49 59 57 55 54 51 49 51 50 49 48 53 57 54 53 50
66 67 67 64 62 61 59 58 58 57 57 58 57 56 54 53 46 48 55 60 57 56 57 59 53 58 47 48 57 56 54 54 54 53 52 50 50 50 50 53 52 49 47
68 68 67 63 62 60 59 58 58 58 57 56 57 55 57 55 51 48 51 58 58 56 56 56 55 46 47 48 51 56 55 54 52 54 52 51 51 51 50 50 51 51 48
68 69 67 63 67 62 59 58 58 58 56 56 54 53 54 54 50 48 49 51 52 57 56 56 52 44 44 45 50 45 45 50 52 50 50 48 49 48 48 49 50 52 52
68 67 66 64 65 62 61 58 57 57 56 55 56 54 54 53 50 45 46 47 48 56 56 53 44 43 43 45 44 45 49 51 50 49 47 46 45 47 48 49 50 51 54
66 65 65 64 61 62 64 62 61 57 56 56 56 55 54 52 50 47 49 49 48 51 49 46 45 45 46 47 49 49 50 50 51 49 45 46 47 47 47 48 49 50 48
66 65 65 66 63 62 63 63 63 62 61 57 57 59 55 52 53 49 49 51 50 50 46 46 45 46 47 47 48 48 49 49 49 46 46 46 47 47 46 45 43 42 41
65 65 65 65 64 64 61 55 46 50 49 51 49 56 57 55 47 45 45 45 44 45 49 48 47 47 49 49 49 48 48 48 47 47 47 49 46 45 43 42 42 41 39
68 65 65 63 64 62 61 60 56 51 45 46 47 48 49 53 45 44 44 43 43 46 52 50 50 50 50 50 49 48 46 46 47 51 46 45 44 43 44 43 43 42 39
67 56 66 66 65 64 63 62 62 59 58 54 45 46 44 45 44 44 43 44 46 48 52 53 52 52 51 50 48 47 45 45 45 45 45 45 47 48 44 44 41 39 39
67 67 68 67 67 64 64 63 62 61 61 55 50 44 40 40 40 40 43 61 57 56 53 53 53 53 53 51 49 48 49 48 46 46 48 49 48 48 45 41 40 37 38
71 59 62 67 65 64 64 63 61 61 59 60 57 55 44 46 47 46 49 58 58 60 59 57 52 51 51 51 49 48 47 45 47 49 49 48 48 48 45 42 41 40 38
72 64 56 67 66 66 65 64 64 63 61 60 60 56 43 55 54 52 52 55 59 62 58 58 53 51 50 50 50 50 50 49 49 50 49 49 48 46 45 42 41 41 39
73 69 66 68 67 67 66 66 65 64 63 62 61 54 40 59 59 56 56 59 61 61 60 57 55 54 52 51 51 51 50 49 49 50 50 49 48 47 45 43 42 40 39
72 69 68 69 69 58 60 66 65 65 65 62 62 58 49 56 61 60 59 59 57 56 57 58 56 54 53 53 54 54 52 51 52 52 50 49 48 47 45 41 42 40 38
71 70 68 69 68 64 65 64 65 55 65 64 62 59 58 58 61 60 59 59 58 56 55 56 55 53 52 51 50 50 52 53 54 53 52 50 48 44 44 43 41 40 34
69 68 67 66 67 65 65 63 63 62 63 64 64 61 59 59 61 60 57 57 56 52 52 53 53 51 50 50 49 45 39 39 47 43 51 50 47 45 44 41 39 36 34
64 65 66 66 66 66 66 63 65 59 60 59 58 58 58 58 59 56 56 55 53 50 50 50 50 48 47 47 46 40 38 38 41 39 48 48 46 44 43 40 39 36 33

GFSGL_sfc_temp_030.txt.gz
Temp
60 60 61 61 61 60 60 60 60 60 61 61 61 61 60 60 60 60 61 61 60 59 59 60 59 59 59 61 61 62 62 60 58 59 61 62 62 62 62 62 63 62 60
60 61 61 61 60 59 60 61 61 61 61 61 61 61 61 60 60 61 62 62 61 60 60 60 59 59 60 61 62 62 62 62 60 58 60 61 61 62 62 62 62 62 62
60 60 60 60 60 59 60 61 62 61 61 61 61 61 61 60 61 62 62 61 60 60 60 60 60 60 60 60 62 62 62 62 61 60 59 61 61 62 61 61 61 61 63
60 60 60 60 60 60 60 61 62 62 62 62 62 62 62 61 61 61 61 60 60 60 60 60 60 61 60 61 61 62 62 61 61 60 59 60 60 61 60 59 57 58 60
60 60 60 60 61 61 61 61 61 62 62 62 62 63 63 61 61 61 61 60 60 60 60 60 61 60 58 59 61 61 61 59 59 58 57 58 58 59 59 58 57 58 59
59 60 60 60 61 61 61 60 60 61 62 63 63 63 62 61 49 53 59 61 61 60 59 59 59 58 56 54 54 54 58 59 57 57 56 57 57 58 59 59 58 58 58
60 61 61 61 62 61 62 60 59 58 60 61 61 61 60 57 48 49 54 61 60 61 60 60 60 60 59 58 52 53 53 53 56 58 57 59 58 60 58 57 58 58 58
60 61 62 62 62 61 61 59 57 57 58 59 59 59 59 55 47 48 51 62 61 61 61 60 60 59 58 59 59 58 58 59 60 62 62 60 62 60 62 61 60 57 57
61 61 62 62 60 60 60 58 57 56 56 57 58 59 56 54 46 47 56 61 61 60 61 61 60 59 49 49 60 59 57 55 48 46 46 46 46 49 55 62 59 59 56
62 63 63 62 61 60 59 57 57 57 57 58 57 58 54 55 45 47 57 62 60 60 60 59 53 58 46 48 59 58 57 55 55 56 57 54 52 50 50 61 61 59 55
64 64 62 61 61 60 58 58 57 56 56 56 56 55 57 57 52 46 50 62 62 60 60 58 60 48 46 45 49 59 57 56 52 56 55 55 55 55 55 55 57 59 56
64 64 62 59 63 60 59 58 57 56 55 54 54 55 55 55 49 44 46 51 54 62 61 62 59 45 44 44 49 46 44 50 57 56 56 54 55 54 53 53 53 53 53
62 61 60 60 60 60 59 57 57 56 56 54 56 56 55 55 54 45 44 45 49 60 61 56 46 43 43 45 44 43 46 57 57 56 55 53 54 52 51 51 51 51 50
62 60 59 60 58 58 60 60 59 57 56 57 56 56 56 55 55 54 55 53 48 53 49 50 48 47 45 48 49 51 58 58 58 57 54 53 53 53 53 55 52 52 50
62 61 60 61 59 58 60 60 61 60 59 59 58 59 56 56 57 51 52 56 57 51 49 51 52 53 54 53 53 55 55 55 56 53 53 52 53 53 53 53 52 50 50
61 61 60 60 60 60 59 56 44 48 47 46 47 56 60 51 45 44 44 44 42 43 53 54 54 54 55 55 56 55 55 52 55 54 54 54 54 54 51 50 51 51 48
63 62 61 59 61 60 60 59 58 53 44 44 43 45 48 52 43 43 42 40 40 45 58 55 55 54 56 55 56 55 55 55 53 54 54 53 53 51 51 51 49 49 46
64 54 62 62 62 62 61 61 62 60 59 58 46 47 43 43 43 42 39 43 48 49 56 57 57 55 55 55 55 55 54 52 53 53 52 51 52 52 51 47 47 44 43
65 63 64 63 63 61 62 62 63 62 62 60 53 46 43 40 40 39 41 58 56 55 55 56 57 56 55 56 56 56 55 53 52 51 51 51 52 52 50 47 45 40 40
66 56 59 63 62 61 62 62 61 60 60 61 59 61 48 48 51 50 48 54 57 58 58 58 57 57 57 56 55 54 53 50 50 52 52 52 52 52 51 46 45 42 42
68 61 54 64 62 63 62 62 61 62 61 61 61 59 44 57 59 57 53 53 57 59 59 60 59 59 58 57 56 55 55 54 53 53 52 52 51 51 49 46 44 44 43
68 63 63 65 64 63 63 62 62 62 62 62 62 57 39 58 62 60 57 57 57 59 61 60 60 60 60 58 57 57 56 53 52 52 51 50 50 48 45 43 42 42 41
67 64 64 65 64 55 58 62 63 62 63 63 63 59 51 57 61 61 60 59 58 58 59 59 60 60 60 60 58 57 56 55 54 53 49 48 46 44 44 42 42 41 40
67 65 64 65 63 62 62 62 62 53 63 63 62 61 58 58 59 61 62 61 59 60 60 60 61 62 58 58 58 58 58 57 55 53 51 47 45 43 43 43 42 41 39
67 64 64 63 63 62 62 62 62 62 62 62 62 62 62 60 60 60 60 60 60 59 59 60 61 61 60 58 58 56 47 40 51 47 50 48 46 44 44 42 41 40 39
67 65 64 64 62 62 62 62 62 61 62 62 62 62 62 61 61 59 58 58 58 58 59 59 59 60 58 57 55 42 39 39 43 44 49 48 46 45 43 41 40 39 39

GFSGL_sfc_temp_033.txt.gz
Temp
72 71 71 71 70 69 69 70 69 70 70 70 70 71 70 70 69 68 68 69 68 68 68 68 62 66 64 62 66 67 66 65 60 60 61 62 62 62 63 63 63 63 61
72 72 71 71 70 69 69 70 70 70 70 71 71 70 70 70 67 67 67 66 66 65 64 65 61 68 68 64 63 65 67 65 62 58 61 61 61 62 62 61 62 63 62
73 73 71 70 70 69 69 69 70 70 70 70 70 70 70 68 67 67 67 66 65 65 68 66 63 66 65 68 69 68 66 64 62 61 59 61 61 61 61 61 62 61 62
73 72 71 71 70 70 69 70 70 71 70 70 71 70 69 65 66 65 65 64 63 64 67 65 67 67 67 67 66 65 66 62 61 60 59 59 60 61 61 59 57 60 60
73 72 71 71 71 71 70 70 70 69 69 67 67 66 68 64 64 63 63 64 64 63 64 65 65 65 61 63 65 66 64 61 60 59 59 59 59 59 59 59 57 57 61
72 72 72 72 71 71 70 70 70 70 66 66 65 66 66 63 50 53 61 64 66 66 63 63 65 60 57 53 54 56 60 61 60 59 59 59 59 59 59 59 58 59 61
73 73 72 72 72 71 70 69 69 69 67 64 62 66 63 61 48 50 54 66 65 63 62 61 61 60 61 61 53 53 53 52 55 61 59 60 61 63 64 61 62 66 66
73 73 73 73 72 72 70 68 67 68 68 67 61 60 61 57 47 48 52 66 64 62 62 61 60 59 60 61 62 59 59 59 60 62 64 64 67 66 67 68 67 63 65
73 74 74 74 73 72 70 68 68 67 67 68 65 58 59 55 46 48 57 65 63 62 61 61 61 58 47 50 61 58 59 59 49 47 48 46 48 52 62 69 66 68 64
75 75 75 75 73 72 71 68 68 68 68 70 67 64 55 56 45 48 58 65 65 61 61 60 52 57 45 50 64 64 63 62 62 64 65 57 59 55 53 72 72 71 67
77 77 75 74 73 73 70 69 68 68 68 67 67 65 63 61 56 45 50 66 65 64 65 65 66 45 45 47 53 65 61 64 58 67 67 67 67 67 68 68 70 70 68
77 76 75 73 74 72 70 69 69 68 67 66 65 66 65 60 50 46 46 52 57 66 69 69 66 46 45 45 54 43 45 55 68 68 68 67 66 65 64 62 62 64 66
75 74 73 73 73 72 70 68 69 68 69 69 70 68 66 67 63 45 44 45 48 68 73 61 45 44 43 46 43 44 49 66 66 63 62 63 65 63 60 60 60 60 59
73 72 73 71 71 72 73 72 72 70 70 71 71 70 69 68 68 64 63 62 50 63 53 61 52 50 45 54 57 55 70 70 69 69 67 65 63 63 64 65 63 63 61
74 72 71 73 70 71 72 73 73 72 71 72 72 73 70 69 70 61 63 69 70 63 62 65 66 67 68 68 68 68 70 68 69 68 66 65 65 66 65 65 65 64 63
72 73 73 74 72 73 72 69 44 50 50 48 51 65 72 56 45 45 45 45 43 44 66 68 68 68 69 69 68 67 68 62 69 68 68 67 66 65 64 63 65 64 61
73 73 74 71 74 73 72 72 69 59 44 44 44 46 50 56 43 43 42 40 40 46 71 71 70 70 71 71 71 71 70 70 69 69 68 68 67 66 60 62 63 62 59
74 58 74 76 76 75 74 73 74 72 69 68 48 51 43 44 42 41 40 45 58 56 71 73 72 72 72 71 71 71 71 69 67 68 67 67 65 64 63 63 61 58 52
75 74 76 77 77 73 76 75 76 75 74 74 72 49 48 41 39 39 41 70 70 69 70 71 72 73 72 72 72 71 70 69 67 66 66 65 65 66 64 63 60 45 47
75 61 67 76 75 74 76 75 75 74 74 75 73 73 66 55 63 62 59 65 72 72 72 72 73 72 72 72 72 71 70 65 65 66 67 65 65 65 64 62 58 53 46
78 73 61 76 76 76 76 75 75 75 75 75 75 73 52 69 72 72 68 67 70 73 73 73 74 74 72 72 71 70 69 68 67 67 66 65 64 60 62 57 49 48 44
79 76 74 76 77 76 76 76 76 75 76 75 76 73 41 68 76 75 74 72 72 73 75 74 74 75 74 74 72 71 71 69 66 65 66 64 58 61 56 47 43 42 42
79 76 75 76 77 64 71 76 76 76 76 76 77 76 64 68 74 76 74 74 73 72 73 73 74 75 75 74 74 74 73 71 69 68 66 63 60 54 52 49 49 42 40
79 76 75 76 76 75 75 74 75 63 76 77 76 76 74 71 72 74 76 75 74 73 74 73 73 74 74 73 73 73 73 73 72 69 66 62 59 50 52 50 48 43 41
79 75 75 75 76 74 75 74 74 76 74 75 75 75 76 74 73 74 74 75 74 73 72 73 73 73 73 72 72 72 61 41 63 55 65 62 58 52 49 47 44 41 40
79 75 75 75 74 73 74 73 74 74 75 74 75 75 76 75 75 74 74 74 73 73 72 73 72 72 72 72 71 57 40 40 49 45 62 59 53 51 48 44 43 41 39

GFSGL_sfc_temp_036.txt.gz
Temp
78 78 77 79 77 76 75 75 75 74 75 77 77 76 76 75 75 73 73 74 74 72 72 70 62 67 70 67 66 65 62 63 63 61 61 62 62 62 63 63 64 63 61
79 79 77 78 77 74 74 75 76 74 76 77 78 77 76 76 74 74 74 74 73 72 68 69 69 70 65 64 65 64 65 67 65 59 60 61 61 62 62 62 62 63 62
80 79 77 76 76 74 74 74 76 75 76 77 78 77 76 75 74 74 74 74 71 74 71 71 70 68 65 67 71 68 66 67 62 60 58 60 61 61 61 61 61 61 62
80 80 77 76 75 75 75 74 75 76 74 75 76 77 75 75 76 75 73 72 70 74 70 73 72 69 70 70 69 68 66 64 63 60 59 59 60 61 61 59 58 60 59
80 79 77 77 77 77 77 76 73 75 73 74 71 74 72 72 75 70 70 70 67 69 69 70 69 66 60 65 70 66 66 63 61 59 58 58 59 59 58 59 57 59 59
79 79 79 78 78 76 76 76 74 72 72 70 71 71 69 70 52 55 64 69 68 68 67 66 68 64 60 53 54 55 64 62 60 59 59 58 59 59 59 57 57 57 61
79 80 79 78 78 77 77 76 74 71 70 66 67 69 68 69 49 51 55 68 66 66 68 66 66 67 66 66 54 53 53 52 58 62 59 60 59 60 60 58 60 62 64
80 80 80 79 79 78 77 75 73 71 70 62 63 68 67 64 48 49 52 68 67 65 65 65 64 66 62 63 62 61 59 60 63 63 62 62 62 63 66 64 63 67 67
81 80 81 81 79 78 76 74 74 72 68 68 67 64 65 63 47 49 59 66 64 62 62 61 60 63 48 50 60 60 59 59 49 48 51 51 50 53 60 68 69 69 67
82 82 82 82 80 78 76 74 75 75 70 69 61 61 57 60 46 48 60 67 61 60 61 62 50 56 47 51 63 62 59 63 67 63 59 55 58 57 53 72 75 73 72
85 84 83 81 79 79 76 75 74 75 74 67 66 64 67 63 59 48 50 66 62 60 63 64 58 45 47 49 54 66 62 67 62 70 70 70 69 69 73 76 76 78 72
85 84 82 80 81 80 75 75 75 74 72 70 67 65 69 65 54 47 45 54 57 66 69 67 60 43 44 47 56 45 48 59 75 73 72 73 74 74 73 73 70 72 72
84 82 81 80 80 79 76 74 76 74 75 75 73 70 67 64 64 47 46 46 49 71 75 55 44 43 43 49 44 48 46 76 77 75 74 74 75 73 68 67 66 66 66
82 80 80 79 78 79 80 78 79 77 78 78 78 76 74 68 65 63 69 68 52 67 55 65 56 55 49 59 60 62 76 76 76 75 74 72 69 66 68 70 69 68 66
81 81 79 80 77 78 79 80 80 79 76 80 79 79 76 75 73 63 66 73 75 70 70 71 73 75 74 73 73 72 75 74 73 72 70 70 71 72 72 72 72 70 67
79 81 81 82 79 81 79 77 45 50 54 51 53 66 77 57 48 48 50 47 46 49 71 74 75 76 76 77 76 76 77 70 77 77 75 74 74 73 72 71 72 71 70
81 81 83 78 81 81 80 79 76 62 47 46 46 48 49 52 45 44 43 42 43 49 76 77 77 77 77 78 78 78 76 77 77 76 76 75 74 74 69 70 71 71 69
82 62 84 83 83 83 81 81 82 79 74 74 49 55 45 43 42 41 40 46 63 60 77 79 78 79 79 79 80 80 80 78 77 76 76 75 74 74 70 70 70 69 68
83 84 85 84 85 80 84 82 83 82 81 80 78 52 48 41 40 39 40 75 75 75 77 79 81 80 80 80 80 80 79 79 76 75 75 75 74 74 72 72 72 52 56
84 68 74 85 85 84 84 83 83 82 81 81 81 79 73 59 67 67 65 72 78 79 80 80 81 81 81 81 80 80 79 75 75 75 75 75 75 74 74 72 71 65 61
87 84 69 86 86 85 84 84 84 83 83 82 82 80 57 74 76 76 75 74 76 80 81 82 83 82 81 81 81 80 79 78 76 75 76 76 75 73 73 73 71 64 60
88 87 82 86 87 85 85 85 84 84 84 84 84 79 44 76 81 81 80 79 79 80 83 82 83 83 83 82 81 80 80 79 78 77 76 77 75 74 73 72 68 60 57
90 88 83 85 87 71 81 85 85 85 85 85 86 85 74 79 81 83 82 83 82 81 81 82 82 83 84 84 83 82 81 81 81 80 77 75 75 73 71 67 63 58 57
91 88 86 85 86 86 84 83 85 69 84 85 85 85 84 80 80 81 84 84 84 83 83 82 82 82 83 83 83 83 83 83 83 82 78 77 75 66 71 65 62 59 55
91 87 86 84 86 84 84 84 84 86 84 85 85 85 86 85 82 82 84 85 84 83 82 82 82 81 81 81 83 82 70 45 70 64 80 76 74 71 67 63 60 52 46
90 88 86 86 85 85 84 83 83 84 85 84 85 85 85 85 85 83 83 83 84 84 83 83 82 81 81 81 81 67 44 42 57 42 74 75 72 70 65 61 56 47 43

GFSGL_sfc_temp_042.txt.gz
Temp
76 76 74 74 74 73 73 74 72 72 73 71 71 71 70 70 70 68 68 69 66 63 63 62 61 63 63 64 64 64 63 63 59 60 61 63 61 61 62 62 63 61 60
78 76 73 71 74 72 72 72 72 71 72 72 72 72 72 72 71 70 69 70 66 63 62 63 63 65 63 64 63 63 62 63 60 57 60 61 60 61 61 61 61 61 61
79 76 73 72 73 71 73 73 74 73 71 71 72 72 72 73 72 71 70 68 67 65 64 64 65 64 64 64 63 62 62 61 60 59 58 60 60 60 60 60 60 60 60
80 76 72 69 72 72 73 74 73 74 72 70 70 73 72 71 72 71 69 69 68 68 68 67 67 65 65 62 62 62 61 60 60 59 58 58 58 59 59 57 56 57 57
80 75 72 70 72 73 72 73 73 72 73 70 71 73 71 69 69 69 69 69 67 67 67 66 63 60 59 61 64 61 61 60 59 58 57 57 56 56 55 56 55 55 56
79 76 76 73 73 70 72 72 71 71 71 70 69 71 68 68 51 54 63 68 66 66 65 67 64 62 57 54 58 58 61 60 59 58 58 57 57 56 56 56 55 54 53
80 77 77 73 73 73 72 72 70 69 69 68 68 67 65 63 50 52 55 67 65 65 64 66 66 66 63 61 53 54 54 53 57 60 58 58 57 58 58 55 55 54 54
80 81 81 77 76 73 71 70 69 67 67 67 68 66 64 60 50 51 54 67 65 65 66 66 63 64 63 64 63 61 60 60 61 61 60 60 59 59 59 58 59 59 60
81 81 81 81 77 75 71 70 68 65 65 66 67 65 63 61 50 49 60 66 64 63 62 63 63 61 48 51 60 58 58 58 52 52 51 49 48 49 56 62 60 60 58
82 82 83 81 78 74 72 70 69 65 64 68 67 66 58 62 47 48 59 65 62 61 61 59 50 56 47 50 60 59 58 58 58 57 55 52 52 52 51 62 64 59 58
85 84 83 79 76 73 72 72 68 66 66 66 65 66 65 63 56 47 51 66 63 61 61 58 57 47 48 51 53 61 58 60 56 60 59 59 59 60 62 62 63 62 62
85 84 81 76 79 76 72 72 69 68 65 64 63 62 65 65 53 49 48 54 54 62 59 60 54 46 48 52 55 48 48 56 62 61 60 60 61 61 63 63 63 63 63
83 80 79 79 77 75 72 71 70 69 67 65 65 65 65 66 62 48 48 48 51 60 61 55 45 45 46 51 47 48 51 63 63 62 61 62 64 65 65 63 62 62 62
80 78 77 77 74 74 75 74 73 71 70 70 68 66 66 66 66 65 62 59 51 57 51 54 54 53 52 56 55 53 67 67 66 64 64 64 63 63 62 62 59 58 57
79 78 76 78 75 75 75 73 76 72 70 73 71 70 67 66 67 62 61 66 67 62 62 62 62 62 61 61 63 64 66 68 66 65 65 64 63 63 62 61 60 58 56
77 78 78 78 76 77 74 70 44 51 48 48 52 67 70 61 49 49 53 50 50 48 65 65 66 66 64 64 64 65 67 64 67 67 65 64 63 63 61 61 60 58 57
77 77 79 76 77 77 77 74 69 56 45 46 50 53 59 55 50 47 46 47 45 49 67 68 68 68 68 68 67 67 66 66 67 65 63 62 62 62 58 62 63 62 60
79 63 80 80 78 79 78 78 77 72 69 67 50 55 46 46 47 46 43 49 62 57 70 69 69 70 70 70 71 70 70 69 68 68 66 66 65 66 65 64 64 61 60
81 81 81 80 82 77 80 79 79 76 74 73 63 54 45 42 42 42 42 67 67 68 69 72 72 73 72 72 70 71 70 71 69 67 66 67 67 67 65 65 64 51 54
81 68 72 81 82 80 81 80 80 78 75 75 70 67 59 53 58 60 61 67 70 71 71 71 74 74 74 74 73 72 71 66 68 69 69 68 67 68 67 66 65 63 59
85 80 68 82 83 82 82 81 81 81 78 77 75 70 52 65 66 66 65 67 70 74 74 74 75 76 74 74 75 74 73 71 70 70 70 69 69 68 67 66 64 63 61
86 83 81 82 84 84 83 83 81 81 81 80 79 69 45 69 71 70 69 69 70 72 75 75 76 77 78 77 76 75 75 74 72 71 70 71 70 69 67 67 66 63 61
88 86 83 83 83 70 76 83 83 82 82 82 82 73 65 70 72 73 72 72 71 71 73 73 75 78 79 77 78 77 77 76 74 74 72 71 70 69 68 63 64 62 61
90 88 86 83 83 84 83 81 83 68 83 83 82 77 71 72 74 74 75 76 75 74 74 75 75 76 77 76 78 78 78 77 74 74 74 72 71 61 69 66 64 63 58
91 87 87 84 83 81 83 82 82 84 82 83 82 81 74 75 76 77 77 78 78 77 77 77 77 77 77 77 78 78 68 46 70 63 72 72 70 68 69 66 63 59 52
87 88 87 88 84 82 81 83 82 82 83 82 83 82 82 78 78 78 78 78 78 79 79 79 78 78 78 78 78 65 46 41 53 47 72 70 69 67 68 65 63 57 50

GFSGL_sfc_temp_045.txt.gz
Temp
67 66 66 65 66 65 64 65 65 65 66 65 65 64 64 65 63 62 62 63 62 62 62 62 61 60 59 61 61 59 59 60 58 59 61 62 62 62 61 61 62 61 60
67 66 65 67 65 64 64 65 65 64 65 66 66 68 68 68 65 63 63 63 63 62 61 62 62 63 61 60 60 59 58 59 60 57 59 60 60 61 61 60 60 61 60
68 67 69 66 64 64 64 64 65 65 65 67 67 68 66 67 68 65 65 64 63 62 61 61 61 61 60 61 60 59 59 59 60 59 58 60 59 60 59 60 60 59 59
69 66 68 68 64 64 64 65 65 66 65 67 68 67 67 68 66 66 65 62 63 62 62 63 62 61 61 61 61 60 60 59 59 59 58 58 59 59 59 57 56 57 56
68 70 68 68 65 65 65 65 65 65 65 65 68 66 66 66 66 64 63 62 61 62 62 62 61 60 61 61 62 60 60 59 58 58 57 57 56 56 56 56 55 55 55
68 70 67 70 69 64 64 64 64 64 64 64 63 64 62 64 52 56 61 61 62 61 62 60 59 58 58 57 57 57 60 59 58 57 56 56 55 55 56 55 55 53 52
69 70 69 70 69 66 66 64 63 62 62 63 62 59 58 56 47 52 57 64 63 62 62 61 63 61 59 58 53 53 53 53 57 60 57 56 56 57 56 55 55 54 53
70 72 71 71 67 68 64 63 62 62 61 62 61 59 57 55 47 47 55 63 62 62 60 60 60 59 59 60 60 60 59 60 60 61 60 58 59 58 58 58 57 56 57
71 71 71 73 67 65 62 61 61 61 60 60 61 59 57 57 48 48 59 62 61 59 59 60 61 59 49 51 60 59 58 57 51 50 50 49 48 49 55 60 56 56 54
71 73 74 75 68 64 62 61 61 60 60 61 62 58 56 58 47 48 57 59 58 58 58 57 50 55 47 49 60 59 58 57 57 56 55 52 53 52 52 60 62 58 55
73 74 73 72 67 64 62 62 61 60 61 62 61 58 59 57 53 49 52 62 59 58 57 57 54 46 46 48 53 61 58 59 55 58 57 57 57 57 57 57 59 58 57
73 72 70 68 71 67 63 61 62 60 62 61 60 58 58 58 51 48 48 53 53 57 55 57 53 45 46 47 55 46 48 54 60 58 58 57 58 57 57 57 60 62 61
71 70 69 69 68 65 63 62 61 59 59 61 60 57 58 59 54 47 45 46 53 57 56 51 44 44 44 46 46 48 51 61 60 59 59 59 60 59 57 58 57 57 58
69 70 69 68 66 64 65 64 63 60 59 60 59 58 58 59 56 54 54 55 50 52 48 50 52 50 50 50 53 56 61 61 61 61 61 60 59 59 59 57 55 54 53
70 70 68 68 68 64 63 60 65 65 64 63 62 61 59 58 59 55 55 58 57 55 54 54 55 56 55 56 57 57 59 59 59 59 58 57 57 58 57 57 55 53 52
70 70 69 68 67 67 60 55 44 45 50 52 55 61 63 56 47 48 48 49 47 46 55 55 55 55 57 57 57 57 58 59 60 61 58 58 58 58 58 55 55 52 51
71 70 69 68 68 67 64 60 56 53 44 43 51 52 55 52 46 47 48 45 44 47 56 56 57 56 57 57 57 57 58 62 59 61 60 59 59 60 53 57 55 54 53
71 59 71 70 70 66 67 64 62 59 57 57 48 52 48 46 46 46 43 46 54 51 58 58 58 60 60 60 59 58 59 59 59 59 60 60 59 60 56 56 56 53 53
72 71 73 69 71 68 68 68 66 64 62 58 53 49 42 42 44 44 42 63 60 60 60 60 61 61 63 64 63 62 61 60 59 58 58 58 58 57 56 56 56 47 48
75 63 65 72 69 70 67 69 68 66 64 62 59 56 48 48 54 52 53 62 61 62 63 63 61 62 63 64 65 65 64 59 62 62 62 62 61 61 60 59 59 57 54
76 67 60 71 69 72 70 70 70 67 67 65 62 59 45 60 60 58 59 60 63 64 64 65 66 65 62 65 67 65 64 63 64 65 64 63 62 62 62 60 58 57 54
77 74 73 72 73 71 72 68 70 67 69 68 66 59 41 63 61 60 60 61 64 65 66 67 68 68 68 65 66 66 66 65 63 63 64 64 63 62 60 58 57 54 53
77 76 72 75 71 62 64 72 70 70 67 70 70 62 54 63 62 62 62 63 63 65 66 62 63 68 68 65 64 66 68 67 66 64 63 64 63 62 61 57 57 55 53
76 76 74 75 75 71 68 71 70 60 69 69 69 62 60 62 64 65 65 65 64 65 66 67 67 65 63 63 66 70 67 66 66 67 66 64 63 56 64 61 58 56 52
68 73 75 74 75 73 72 69 71 70 71 71 69 64 64 64 65 66 67 67 66 66 65 66 68 69 65 64 65 66 59 45 64 57 66 64 65 62 64 62 56 52 46
65 66 68 73 75 74 73 71 71 71 72 74 71 66 66 66 67 68 68 68 68 68 68 68 69 68 68 69 69 61 46 43 49 44 65 64 62 62 62 60 57 50 46

GFSGL_sfc_temp_048.txt.gz
Temp
63 63 62 62 63 62 62 63 63 63 63 63 63 62 62 61 62 61 60 62 62 61 61 61 60 60 59 60 59 58 57 57 58 59 61 61 61 62 62 62 62 61 59
64 64 62 62 62 62 62 63 63 63 63 63 64 64 65 65 62 61 62 63 62 60 60 61 59 61 59 58 59 57 56 58 60 58 60 60 60 60 60 59 60 60 60
64 62 62 62 62 61 62 62 63 63 63 64 64 65 64 65 66 62 63 62 61 60 60 59 60 60 59 58 58 57 57 59 61 59 58 59 59 60 59 59 59 59 60
64 63 66 63 62 62 62 62 63 64 63 63 64 65 66 66 64 64 63 62 60 60 61 61 61 62 60 60 59 58 58 60 60 59 58 57 58 59 59 57 56 57 57
69 68 67 66 62 62 62 62 63 63 63 64 65 65 65 65 65 62 62 61 60 60 61 62 61 62 60 60 60 59 59 59 59 58 57 57 57 56 55 56 55 54 54
67 69 66 65 63 62 62 62 62 62 61 62 60 61 62 63 49 55 59 60 60 59 58 59 59 58 58 55 56 56 59 59 58 58 57 56 56 56 56 55 54 53 50
66 69 69 66 64 63 63 62 61 60 60 59 59 60 58 55 47 51 55 60 59 59 59 59 60 60 59 58 53 52 52 53 57 60 57 57 55 56 56 55 55 55 53
67 69 69 66 64 63 62 60 60 59 59 59 59 57 56 54 46 48 54 62 60 59 59 59 58 58 57 60 60 59 59 59 59 60 59 58 58 58 59 58 57 55 56
67 71 68 67 64 62 61 59 59 60 58 57 58 56 55 55 46 49 57 60 59 58 59 60 60 59 48 50 60 58 56 55 50 49 50 48 47 48 55 59 56 54 52
68 70 70 68 65 61 60 59 59 59 58 58 58 57 54 56 46 50 56 60 58 57 57 57 50 55 46 49 60 58 56 56 56 55 55 52 53 51 52 59 59 55 53
71 70 68 65 64 62 60 59 59 59 58 57 56 56 59 57 53 46 51 57 59 57 57 56 54 45 46 47 52 60 56 57 54 57 57 56 56 57 58 59 56 58 53
70 70 65 63 67 64 60 59 59 59 60 59 57 57 59 58 50 46 49 51 53 55 57 57 52 44 45 46 52 45 47 53 58 57 56 56 56 55 55 56 57 57 56
67 66 64 65 64 62 60 59 58 58 61 59 59 58 58 58 54 45 46 46 50 54 56 49 44 42 44 46 45 46 50 60 59 57 56 57 56 55 55 56 58 59 56
66 65 65 64 60 61 61 60 59 58 57 61 58 58 59 57 54 55 54 53 48 51 48 52 49 49 49 51 52 56 61 61 60 59 57 58 57 55 55 55 53 52 52
67 66 65 65 63 60 60 59 60 60 60 59 58 58 57 55 55 52 53 56 54 53 52 53 55 57 56 57 59 60 60 60 59 60 59 58 57 57 56 54 54 51 51
66 66 65 64 62 62 57 52 42 46 49 51 52 56 58 52 44 45 46 45 45 45 53 53 53 56 58 58 59 58 58 56 58 58 57 58 57 57 57 54 53 52 50
68 67 65 64 64 61 59 57 54 51 44 43 45 48 50 50 44 44 44 42 43 46 54 54 54 55 55 57 58 55 57 59 57 59 58 57 57 57 53 56 55 53 51
69 56 66 66 66 64 62 59 58 56 55 56 45 48 46 44 44 44 41 45 50 50 55 55 55 54 54 55 55 55 55 56 57 58 56 56 56 57 54 56 56 55 52
69 67 68 67 67 64 63 60 59 58 58 57 51 47 42 41 41 41 40 59 57 55 55 56 56 56 55 57 58 57 56 56 59 58 58 58 58 57 56 57 55 45 46
70 61 63 67 65 64 65 63 60 59 57 58 58 59 48 48 51 51 50 57 57 59 59 59 58 58 59 60 59 59 58 54 56 58 58 59 59 58 59 56 54 54 51
71 65 57 68 67 67 65 65 64 63 61 59 60 55 44 58 58 57 56 56 60 60 60 61 62 59 59 61 62 61 60 60 60 60 60 59 58 57 58 57 57 55 55
71 69 68 69 69 68 67 67 65 65 64 63 62 57 39 58 60 60 60 60 62 63 64 63 64 64 64 62 62 62 62 62 62 61 61 61 60 60 59 58 57 55 53
70 68 69 71 70 59 61 66 67 65 66 65 63 61 50 56 60 61 61 62 62 62 64 63 64 65 66 65 65 65 64 64 64 64 62 62 61 60 59 57 58 56 51
68 68 66 67 67 66 67 67 67 57 66 67 65 63 57 59 63 62 62 62 62 62 63 64 64 65 67 66 65 66 67 67 66 64 65 64 62 56 61 60 59 59 54
63 66 64 62 63 63 61 63 67 66 67 67 67 64 61 61 62 63 63 63 62 62 62 63 65 65 62 62 64 65 58 46 61 56 63 65 63 61 60 61 59 55 48
62 64 63 62 61 60 64 62 65 67 68 69 67 66 63 62 63 63 63 62 63 63 63 63 64 64 65 65 64 57 46 43 48 42 61 63 62 62 61 60 58 56 50